Terminal Aerodrome Forecast
Issued by NWS Grand Forks, ND

Home | Current Version | Previous Version | Text Only | Print | Product List | Glossary On
Versions: 1 2 3 4 5 6 7 8 9 10 11 12 13 14 15 16 17 18 19 20 21
000
FTUS43 KFGF 222300
TAFFAR
TAF
KFAR 222320Z 2300/2324 36008KT P6SM OVC030
      TEMPO 2300/2303 BKN040
     FM230900 03007KT P6SM OVC015
      TEMPO 2310/2313 OVC010=

USA.gov is the U.S. government's official web portal to all federal, state and local government web resources and services.